Location: Bieujac
(44.5398°N, 0.1549°W)
Time: 09:07:10
(UTC+00:00)

ATLAS CENTAUR R/B - Pass Details

Date: 17 November 2019
Orbit: 457 x 691 km, 64.7° (Epoch: 30 November)

Event Time Altitude Azimuth Distance (km) Brightness Sun altitude
Rises 04:46:24 0° 188° (S) 3,045 5.1 -23.5°
Reaches altitude 10° 04:48:54 10° 180° (S) 2,136 4.4 -23.1°
Maximum altitude 04:53:18 34° 116° (ESE) 1,127 3.4 -22.3°
Drops below altitude 10° 04:57:38 10° 52° (NE) 2,108 4.9 -21.5°
Sets 05:00:05 0° 43° (NE) 3,000 5.6 -21.1°
